This demonstration page uses our WeatherBlox Daily Observations layout. Learn more.

Left ArrowRight Arrow

38.89511, -77.03637

Hourly Observations for March 20, 2021

Temp ( °F °C ) Dew Point ( °F °C ) Humidity (%) Winds ( mph kmh ) Pressure ( in mb ) Visibility ( mi km ) Precip ( " mm )
12:52 am 00:52 Clear 41 5 13 -10.6 32 32 NNE 16 26 30.47 1032 10 16.0934 0 0
1:52 am 01:52 Clear 40 4.4 15 -9.4 36 36 NNE 13 20 30.48 1032 10 16.0934 0 0
3:52 am 03:52 Clear 37 2.8 15 -9.4 41 41 N 10 17 30.51 1033 10 16.0934 0 0
4:52 am 04:52 Clear 36 2.2 15 -9.4 42 42 NNE 8 13 30.53 1034 10 16.0934 0 0
5:52 am 05:52 Clear 35 1.7 15 -9.4 44 44 N 10 17 30.55 1035 10 16.0934 0 0
6:52 am 06:52 Mostly Clear 32 0 17 -8.3 54 54 NNW 8 13 30.57 1035 10 16.0934 0 0
7:52 am 07:52 Mostly Sunny 34 1.1 19 -7.2 54 54 N 7 11 30.59 1036 10 16.0934 0 0
8:52 am 08:52 Mostly Sunny 39 3.9 16 -8.9 39 39 NNE 9 15 30.6 1036 10 16.0934 0 0
9:52 am 09:52 Mostly Sunny 42 5.6 16 -8.9 35 35 ENE 6 9 30.63 1037 10 16.0934 0 0
10:52 am 10:52 Mostly Sunny 45 7.2 16 -8.9 31 31 Calm 30.63 1037 10 16.0934 0 0
11:52 am 11:52 Mostly Sunny 49 9.4 15 -9.4 26 26 NE 9 15 30.62 1037 10 16.0934 0 0
12:52 pm 12:52 Mostly Sunny 51 10.6 16 -8.9 25 25 ENE 6 9 30.6 1036 10 16.0934 0 0
1:52 pm 13:52 Mostly Sunny 53 11.7 15 -9.4 22 22 E 3 6 30.58 1036 10 16.0934 0 0
2:52 pm 14:52 Mostly Sunny 56 13.3 15 -9.4 20 20 Calm 30.56 1035 10 16.0934 0 0
3:52 pm 15:52 Mostly Sunny 55 12.8 16 -8.9 21 21 ESE 3 6 30.54 1034 10 16.0934 0 0
4:52 pm 16:52 Mostly Sunny 59 15 18 -7.8 20 20 NNE 3 6 30.53 1034 10 16.0934 0 0
5:52 pm 17:52 Mostly Sunny 57 13.9 19 -7.2 23 23 VRB 3 6 30.52 1034 10 16.0934 0 0
6:52 pm 18:52 Mostly Sunny 55 12.8 18 -7.8 23 23 Calm 30.52 1034 10 16.0934 0 0
7:52 pm 19:52 Mostly Clear 50 10 26 -3.3 39 39 SSE 8 13 30.52 1034 10 16.0934 0 0
8:52 pm 20:52 Clear 49 9.4 22 -5.6 35 35 SSE 3 6 30.53 1034 10 16.0934 0 0
9:52 pm 21:52 Clear 49 9.4 19 -7.2 31 31 Calm 30.54 1034 10 16.0934 0 0
10:52 pm 22:52 Clear 46 7.8 30 -1.1 54 54 Calm 30.54 1034 10 16.0934 0 0
11:52 pm 23:52 Mostly Clear 44 6.7 26 -3.3 49 49 SSW 5 7 30.54 1034 10 16.0934 0 0

Powered by AerisWeather